Waukesha, WI

5:27 AM CST on January 23, 2017 (GMT -0600)
Waukesha County

Weather History for KUES - May, 2013

Change the Weather History Date:

Monday, May 6, 2013

  Actual Average Record
Temperature  
Mean Temperature 56 °F -  
Max Temperature 69 °F 65 °F 84 °F (1959)
Min Temperature 42 °F 43 °F 29 °F (1954)
Degree Days  
Heating Degree Days 10    
Growing Degree Days 6 (Base 50)    
Moisture  
Dew Point 36 °F    
Average Humidity 54    
Maximum Humidity 76    
Minimum Humidity 25    
Precipitation  
Precipitation 0.00 in - - ()
Sea Level Pressure  
Sea Level Pressure 30.04 in    
Wind  
Wind Speed 1 mph (ENE)    
Max Wind Speed 12 mph    
Max Gust Speed -    
Visibility 10 miles    
Events      
Averages and records for this station are not official NWS values.
T = Trace of Precipitation, MM = Missing Value Source: NWS Daily Summary

Daily Weather History Graph

Daily Weather History Graph

Search for Another Location

Airport or City:

Trip Planner

Search our weather history database for the weather conditions in past years. The results will help you decide how hot, cold, wet, or windy it might be!

Date:

Astronomy

May. 06, 2013 Rise Set
Actual Time 5:39 AM CDT 8:00 PM CDT
Civil Twilight 5:08 AM CDT 8:31 PM CDT
Nautical Twilight 4:28 AM CDT 9:11 PM CDT
Astronomical Twilight 3:45 AM CDT 9:55 PM CDT
Moon 3:46 AM CDT (5/6) 4:55 PM CDT (5/6)
Length of Visible Light 15h 23m
Length of Day
14h 20m
Waning Crescent, 11% of the Moon is Illuminated
May 6
Waning Crescent
May 9
New
May 17
First Quarter
May 24
Full
May 31
Last Quarter

Hourly Weather History & Observations

Time (CDT) Temp. Dew Point Humidity Pressure Visibility Wind Dir Wind Speed Gust Speed Precip Events Conditions
12:15 AM 51.8 °F 35.6 °F 54% 30.05 in 10.0 mi Calm Calm - N/A   Clear
12:35 AM 50.0 °F 35.6 °F 58% 30.05 in 10.0 mi Calm Calm - N/A   Clear
12:55 AM 50.0 °F 35.6 °F 58% 30.04 in 10.0 mi Calm Calm - N/A   Clear
1:15 AM 50.0 °F 35.6 °F 58% 30.04 in 10.0 mi Calm Calm - N/A   Clear
1:35 AM 46.4 °F 35.6 °F 66% 30.04 in 10.0 mi Calm Calm - N/A   Clear
1:55 AM 46.4 °F 37.4 °F 71% 30.04 in 10.0 mi Calm Calm - N/A   Clear
2:15 AM 48.2 °F 35.6 °F 62% 30.03 in 10.0 mi Calm Calm - N/A   Clear
2:35 AM 46.4 °F 35.6 °F 66% 30.03 in 10.0 mi Calm Calm - N/A   Clear
2:55 AM 44.6 °F 35.6 °F 71% 30.03 in 10.0 mi Calm Calm - N/A   Clear
3:15 AM 44.6 °F 35.6 °F 71% 30.03 in 10.0 mi Calm Calm - N/A   Clear
3:35 AM 46.4 °F 35.6 °F 66% 30.03 in 10.0 mi Calm Calm - N/A   Clear
3:55 AM 46.4 °F 35.6 °F 66% 30.03 in 10.0 mi Calm Calm - N/A   Clear
4:15 AM 46.4 °F 35.6 °F 66% 30.03 in 10.0 mi Calm Calm - N/A   Clear
4:35 AM 46.4 °F 35.6 °F 66% 30.03 in 10.0 mi Calm Calm - N/A   Clear
4:55 AM 42.8 °F 35.6 °F 76% 30.03 in 10.0 mi Calm Calm - N/A   Clear
5:15 AM 44.6 °F 35.6 °F 71% 30.04 in 10.0 mi Calm Calm - N/A   Clear
5:35 AM 44.6 °F 35.6 °F 71% 30.05 in 10.0 mi Calm Calm - N/A   Clear
5:45 AM 44.6 °F 35.6 °F 71% 30.05 in 10.0 mi Calm Calm - N/A   Clear
6:45 AM 46.4 °F 37.4 °F 71% 30.06 in 10.0 mi Calm Calm - N/A   Clear
7:45 AM 51.8 °F 39.2 °F 62% 30.07 in 10.0 mi ENE 4.6 mph - N/A   Clear
8:45 AM 55.4 °F 42.8 °F 63% 30.09 in 10.0 mi NNE 5.8 mph - N/A   Mostly Cloudy
9:45 AM 60.8 °F 41.0 °F 48% 30.09 in 10.0 mi ENE 5.8 mph - N/A   Scattered Clouds
10:45 AM 62.6 °F 39.2 °F 42% 30.09 in 10.0 mi ENE 5.8 mph - N/A   Clear
11:45 AM 66.2 °F 37.4 °F 35% 30.08 in 10.0 mi ENE 6.9 mph - N/A   Scattered Clouds
1:45 PM 69.8 °F 33.8 °F 27% 30.05 in 10.0 mi ENE 11.5 mph - N/A   Scattered Clouds
2:45 PM 68.0 °F 35.6 °F 30% 30.04 in 10.0 mi East 6.9 mph - N/A   Scattered Clouds
3:45 PM 69.8 °F 35.6 °F 28% 30.02 in 10.0 mi East 5.8 mph - N/A   Mostly Cloudy
4:45 PM 69.8 °F 32.0 °F 25% 30.01 in 10.0 mi East 5.8 mph - N/A   Mostly Cloudy
5:45 PM 69.8 °F 33.8 °F 27% 30.01 in 10.0 mi ESE 5.8 mph - N/A   Mostly Cloudy
6:45 PM 66.2 °F 33.8 °F 30% 30.01 in 10.0 mi Calm Calm - N/A   Mostly Cloudy
7:45 PM 60.8 °F 37.4 °F 42% 30.02 in 10.0 mi ENE 4.6 mph - N/A   Mostly Cloudy
8:45 PM 57.2 °F 33.8 °F 41% 30.03 in 10.0 mi East 6.9 mph - N/A   Mostly Cloudy
9:15 PM 55.4 °F 33.8 °F 44% 30.05 in 10.0 mi ENE 3.5 mph - N/A   Clear
9:35 PM 55.4 °F 35.6 °F 47% 30.05 in 10.0 mi Calm Calm - N/A   Scattered Clouds
9:55 PM 55.4 °F 35.6 °F 47% 30.05 in 10.0 mi Calm Calm - N/A   Scattered Clouds
10:15 PM 53.6 °F 35.6 °F 51% 30.05 in 10.0 mi NE 3.5 mph - N/A   Mostly Cloudy
10:35 PM 53.6 °F 33.8 °F 47% 30.05 in 10.0 mi Calm Calm - N/A   Overcast
11:15 PM 51.8 °F 33.8 °F 50% 30.05 in 10.0 mi Calm Calm - N/A   Overcast
11:35 PM 51.8 °F 33.8 °F 50% 30.05 in 10.0 mi Calm Calm - N/A   Overcast
11:55 PM 51.8 °F 33.8 °F 50% 30.04 in 10.0 mi Calm Calm - N/A   Overcast